Location: Newark
(37.8444°N, 127.0614°E)
Time: 00:37:24
(UTC+00:00)

N. Korean satellite - Visible Passes

Search period start: 18 November 2019 00:00
Search period end: 28 November 2019 00:00
Orbit: 456 x 506 km, 97.2° (Epoch: 17 November)

Date Brightness Start Highest point End Pass type
(mag) Time Alt. Az. Time Alt. Az. Time Alt. Az.
18 Nov 9.1 09:18:31 10° SSW 09:21:34 26° W 09:24:42 10° NW visible
18 Nov 9.0 20:46:26 10° NE 20:49:35 26° E 20:52:40 10° SSE visible
19 Nov 7.3 08:52:33 10° S 08:56:07 59° W 08:59:46 10° NNW visible
19 Nov 10.1 20:22:22 10° ENE 20:24:02 13° E 20:25:40 10° ESE visible
20 Nov 6.5 21:28:32 10° N 21:32:14 79° WNW 21:35:52 10° SSW visible
21 Nov 9.9 09:36:35 10° SW 09:38:53 16° W 09:41:14 10° NW visible
21 Nov 7.9 21:03:18 10° NNE 21:06:51 44° E 21:10:18 10° S visible
22 Nov 8.6 09:10:03 10° SSW 09:13:22 33° W 09:16:44 10° NNW visible
22 Nov 9.4 20:38:32 10° NE 20:41:21 21° E 20:44:06 10° SE visible
23 Nov 6.8 08:44:17 10° S 08:47:56 77° WSW 08:51:39 10° NNW visible
23 Nov 6.9 21:45:52 10° N 21:49:23 44° WNW 21:52:49 10° SSW visible
24 Nov 6.7 21:20:22 10° NNE 21:24:02 80° ESE 21:27:38 10° S visible
25 Nov 9.6 09:27:51 10° SW 09:30:38 20° W 09:33:26 10° NW visible
25 Nov 8.4 20:55:14 10° NNE 20:58:35 34° E 21:01:53 10° SSE visible
26 Nov 8.0 09:01:37 10° S 09:05:07 43° W 09:08:41 10° NNW visible
26 Nov 9.8 20:30:43 10° NE 20:33:03 16° E 20:35:22 10° SE visible
27 Nov 6.6 08:36:02 10° SSE 08:39:43 82° ENE 08:43:26 10° N visible
27 Nov 6.6 21:37:34 10° N 21:41:10 57° WNW 21:44:40 10° SSW visible
